Regional Weather Roundup
Issued by NWS

Home | Current Version | Previous Version | Text Only | Print | Product List | Glossary Off
Versions: 1 2 3 4 5 6 7 8 9 10 11 12 13 14 15 16 17 18 19 20 21 22 23 24 25 26 27 28 29 30 31 32 33 34 35 36 37 38 39 40 41 42 43 44 45 46 47 48 49 50

000
ASUS43 KOAX 021310
RWRNE

WEATHER ROUNDUP FOR NEBRASKA
NATIONAL WEATHER SERVICE OMAHA NE
700 AM CST MON MAR 02 2015

NOTES: SATELLITE DATA IS BEING USED TO AUGMENT CLOUD COVER ABOVE
       12000 FEET.
       "FAIR" INDICATES FEW OR NO CLOUDS BELOW 12,000 FEET WITH NO
       SIGNIFICANT WEATHER AND/OR OBSTRUCTIONS TO VISIBILITY.

  * THESE STATIONS DO NOT REPORT WEATHER SUCH AS RAIN...SNOW OR FOG.

NEZ001>004-019>022-054>056-021400-
NEBRASKA PANHANDLE

CITY           SKY/WX    TMP DP  RH WIND       PRES   REMARKS
SCOTTSBLUFF    CLOUDY    30  19  63 SE12      30.06F WCI  20
ALLIANCE       PTCLDY    24  17  74 S13       30.07F WCI  12
CHADRON        MOCLDY    30  17  58 SW6       30.04F WCI  24
KIMBALL        CLOUDY    26  22  85 S16       30.01F WCI  13
SIDNEY         CLOUDY    27  19  72 S17G24    30.08F WCI  14
$$

NEZ057>060-069>072-079>082-021400-
SOUTHWEST NEBRASKA

CITY           SKY/WX    TMP DP  RH WIND       PRES   REMARKS
NORTH PLATTE   CLOUDY    26  16  65 SE7       30.25S WCI  18
IMPERIAL         N/A     29  19  66 S14       30.21S WCI  18
LEXINGTON      CLOUDY    30  18  61 S8        30.30F WCI  23
MCCOOK         CLOUDY    30  22  72 S13       30.29F WCI  20
OGALLALA       CLOUDY    27  20  74 SE5       30.19F WCI  22
$$

NEZ005>010-023>029-035>040-094-021400-
NORTH CENTRAL NEBRASKA

CITY           SKY/WX    TMP DP  RH WIND       PRES   REMARKS
VALENTINE      CLOUDY    24  11  57 S15       30.20F WCI  11
AINSWORTH      CLOUDY    24  11  57 S17G23    30.23F WCI  10
BROKEN BOW     CLOUDY    26  13  57 SE7       30.29S WCI  18
O`NEILL        CLOUDY    22  14  74 SE10      30.33F WCI  11
ORD            CLOUDY    24  11  57 SE9       30.32F WCI  14
THEDFORD       CLOUDY    28  13  52 SE12      30.22F WCI  18
$$

NEZ041-046>049-061>064-073>077-083>087-021400-
SOUTH CENTRAL NEBRASKA

CITY           SKY/WX    TMP DP  RH WIND       PRES   REMARKS
GRAND ISLAND   CLOUDY    26  13  57 SE10      30.37F WCI  16
AURORA         CLOUDY    26  15  64 SE10      30.37F WCI  16
HASTINGS       CLOUDY    28  17  63 SE7       30.35F WCI  21
HEBRON         CLOUDY    28  24  83 CALM      30.40F
HOLDREGE       CLOUDY    29  19  66 S12       30.33R WCI  20
KEARNEY *      CLOUDY    28  16  59 SE9       30.33F WCI  20
YORK           CLOUDY    25  16  68 SE9       30.39F WCI  15
$$

NEZ011>018-030>034-042>045-021400-
NORTHEAST NEBRASKA

CITY           SKY/WX    TMP DP  RH WIND       PRES   REMARKS
NORFOLK        PTCLDY    14   9  80 E3        30.40F
ALBION         MOCLDY    16  10  79 CALM      30.38S
BLAIR          PTCLDY    22  15  74 E7        30.44F WCI  14
COLUMBUS *     MOCLDY    21   9  58 E8        30.42F WCI  12
FREMONT        PTCLDY    23  16  75 E3        30.45S
TEKAMAH        PTCLDY    15  10  80 NE3       30.47F
WAYNE          PTCLDY     6   2  84 CALM      30.44S
$$

NEZ050>053-065>068-078-088>093-021400-
SOUTHEAST NEBRASKA

CITY           SKY/WX    TMP DP  RH WIND       PRES   REMARKS
LINCOLN        PTCLDY    20  14  77 E5        30.45F WCI  13
OMAHA EPPLEY   MOCLDY    21  14  74 CALM      30.47F
BEATRICE       CLOUDY    27  19  72 E3        30.43F
FALLS CITY     PTCLDY    24  21  88 CALM      30.46F
NEBRASKA CITY  MOCLDY    25  16  67 E3        30.46R
PLATTSMOUTH    PTCLDY    22  13  68 E6        30.46S WCI  14
$$

NEZ044-045-051>053-067-021400-
OMAHA AREA

CITY           SKY/WX    TMP DP  RH WIND       PRES   REMARKS
OMAHA EPPLEY   MOCLDY    21  14  74 CALM      30.47F
BLAIR          PTCLDY    22  15  74 E7        30.44F WCI  14
FREMONT        PTCLDY    23  16  75 E3        30.45S
MILLARD        PTCLDY    22  14  70 CALM      30.47F
OFFUTT AFB     MOCLDY    20  13  75 NE2       30.46F
PLATTSMOUTH    PTCLDY    22  13  68 E6        30.46S WCI  14
WAHOO          FAIR      19  13  77 CALM      30.45F
$$



USA.gov is the U.S. government's official web portal to all federal, state and local government web resources and services.